Regional Weather Roundup
Issued by NWS Pendleton, OR

Home | Current Version | Previous Version | Text Only | Print | Product List | Glossary On
Versions: 1 2 3 4 5 6 7 8 9 10 11 12 13 14 15 16 17 18 19 20 21 22 23 24 25 26 27 28 29 30 31 32 33 34 35 36 37 38 39 40 41 42 43 44 45 46 47 48 49 50
000
ASUS46 KPDT 290325
RWRPDT
PENDLETON REGIONAL WEATHER ROUNDUP
NATIONAL WEATHER SERVICE PENDLETON OREGON
800 PM PDT TUE JUL 28 2015

NOTE: FAIR INDICATES FEW OR NO CLOUDS BELOW 12,000 FEET WITH NO
SIGNIFICANT WEATHER AND/OR OBSTRUCTIONS TO VISIBILITY.

# INDICATES UNOFFICIAL STATION AND DATA

WAZ520-290410-
EAST SLOPES OF WASHINGTON CASCADES

CITY            SKY/WX      TMP DP  RH  WIND    PRES   REMARKS
#BULLFROG 2SW   N/A         70  45  41  CALM    27.78R
#BUMPING DAM    N/A         65  N/A N/A CALM    N/A
#CLE ELUM HS    N/A         73  47  40  SW7     30.11R
#CLE ELUM LAKE  N/A         69  47  45  CALM    30.09R
#CLIFFDEL 2NW   N/A         73  43  34  NW3     N/A
#GLENWOOD       N/A         75  52  45  CALM    30.08S
#MANASTASH CYN  N/A         70  40  34  CALM    30.15S
#NELSON         N/A         74  48  40  CALM    30.10R
#NELSON 3SW     N/A         67  44  43  CALM    30.30R
#NILE           N/A         76  45  33  W2      29.37R
#RONALD 2NW     N/A         72  48  43  N2      30.08R
#SNOWDEN        N/A         76  22  13  CALM    N/A
#TEANAWAY 4NE   N/A         74  51  44  SW2     N/A
#TROUT LAKE 1NE N/A         78  51  39  N2      30.08R
$$

WAZ521-290410-
SIMCOE HIGHLANDS

CITY            SKY/WX      TMP DP  RH  WIND    PRES   REMARKS
#BICKLETON HS   N/A         72  27  19  CALM    N/A
#CENTERVILLE 4W N/A         84  42  23  SW2     29.89S
#CENTERVILLE 1SWN/A         77  41  28  SW3     30.01F
#GOLDENDALE     N/A         82  38  21  S5      N/A
#GOLDENDALE 1NE N/A         81  32  17  S3      N/A
#GOLDENDALE 5WNWN/A         78  43  29  S1      30.06R
#GOODNOE HILLS  N/A         80  39  23  E3      N/A
#LYLE 6NE       N/A         80  46  30  SW3     30.04S
$$

WAZ026-290410-
KITTITAS VALLEY

CITY            SKY/WX      TMP DP  RH  WIND    PRES   REMARKS
ELLENSBURG AP   PTCLDY      80  45  29  N14     30.13S
YTC-OPS AREA    N/A         71  33  25  E6      30.18S
#ELLENSBURG CWU N/A         79  47  32  NW13    30.01F
#ELLENSBURG 3NE N/A         76  49  39  N7      30.13R
#ELLENSBURG 1E  N/A         78  43  29  CALM    N/A
#KITTITAS 3S    N/A         75  53  46  CALM    30.05R
#THORP 6N       N/A         73  47  40  W20G30  30.09S
$$

WAZ027-290410-
YAKIMA VALLEY

CITY            SKY/WX      TMP DP  RH  WIND    PRES   REMARKS
SUNNYSIDE AP    CLEAR       74  55  51  CALM    30.10S
YAKIMA AIRPORT  MOCLEAR     81  40  23  S7      30.12R
#DONALD 2NE     N/A         79   8   6  N1      28.97R
#GRANDVIEW      N/A         77  43  30  CALM    30.09R
#MABTON         N/A         82  52  35  CALM    30.09S
#MOXEE 2E       N/A         76  24  14  CALM    30.00R
#NACHES 2SW     N/A         81  56  42  CALM    30.15S
#OUTLOOK DOT    N/A         N/A N/A N/A E1      N/A
#SELAH 8E       N/A         77  36  23  S6      N/A
#TERRACE HTS    N/A         79  43  28  CALM    30.04R
#TOPPENISH      N/A         82  42  24  CALM    29.99S
#WAPATO 4NE     N/A         79   8   6  N1      28.97R
#WEST VALLEY    N/A         79  46  31  CALM    30.05R
#WHITE SWAN 5E  N/A         79  45  30  NE1     30.08R
#WILEY CITY 3W  N/A         77  32  19  CALM    30.09S
$$

WAZ028-290410-
LOWER COLUMBIA BASIN...WASHINGTON

CITY            SKY/WX      TMP DP  RH  WIND    PRES   REMARKS
PASCO           CLEAR       82  41  23  E6      30.09S
RICHLAND AWOS   CLEAR       82  43  25  NE6     30.09R
#BASIN CITY 5SW N/A         73  55  53  CALM    30.09S
#BENTON CITY    N/A         82  42  24  CALM    29.98R
#CONNELL 5N     N/A         83  40  22  CALM    30.08S
#CONNELL 5NW    N/A         80  47  31  CALM    30.04F
#ELTOPIA 6NW    N/A         80  47  31  CALM    29.08S
#KAHLOTUS       N/A         82  36  19  W5      30.07S
#KENNEWICK      N/A         70  45  41  CALM    27.78R
#KENNEWICK 3S   N/A         78  46  32  CALM    30.07R
#PATERSON       N/A         82  47  29  CALM    30.05S
#PROSSER        N/A         83  38  20  CALM    30.07R
#SAGEMOOR 2W    N/A         82  50  33  CALM    29.93S
#TOUCHET 2S     N/A         81  57  44  CALM    30.04S
#WEST PASCO     N/A         82  48  31  NE2     30.09R
$$

WAZ029-290410-
FOOTHILLS OF THE BLUES...WASHINGTON

CITY            SKY/WX      TMP DP  RH  WIND    PRES   REMARKS
WALLA WALLA AP  CLEAR       81  37  21  NW8     30.11S
#DAYTON SCHOOL  N/A         80  34  19  E1      30.12R
#LOWDEN 2SE     N/A         79  46  31  NW1     30.05S
#PLEASANT VIEW 1N/A         78  36  22  W1      30.11S
#PRESCOTT       N/A         78  43  29  CALM    30.05S
#SUDBURY        N/A         78  N/A N/A CALM    N/A
#WHITMAN COLLEGEN/A         80  44  28  N3      30.11S
#WAITSBURG 8N   N/A         70  19  14  NE3     29.94S
#WALLA WALLA U  N/A         84  43  24  W1      30.05S
#WHITMAN MISSIONN/A         83  45  26  CALM    30.08R
$$

WAZ030-290410-
BLUE MOUNTAINS...WASHINGTON

CITY            SKY/WX      TMP DP  RH  WIND    PRES   REMARKS
$$

ORZ009-041-WAZ024-290410-
COLUMBIA RIVER GORGE

CITY            SKY/WX      TMP DP  RH  WIND    PRES   REMARKS
HOOD RIVER AP   CLEAR       81  48  32  CALM    30.09R
THE DALLES AP   CLEAR       87  39  18  CALM    30.05S
#ARLINGTON AIRPON/A         78  43  29  E5      N/A
#MOSIER 1S      N/A         85  29  13  N2      30.08S
#MURDOCK        N/A         91  45  20  CALM    30.05S HX 87

$$

ORZ510-290410-
NORTH CENTRAL OREGON

CITY            SKY/WX      TMP DP  RH  WIND    PRES   REMARKS
#CHENOWITH 1W   N/A         81  40  23  E5      N/A
#DUFUR 9E       N/A         78  36  22  NW3     30.13S
#GRASS VALLEY 1SN/A         80  43  27  CALM    30.08F
#MAUPIN SCHOOL  N/A         82  46  28  N2      30.10S
#MORO SCHOOL    N/A         79  47  32  N1      30.14S
#SHANIKO 4NW    N/A         72  35  26  N10     30.22S
#TYGH VALLEY 2NEN/A         82  41  23  NE7     30.07S
#WAPANITIA AIRPON/A         78  38  24  NE5     30.09S
#WASCO AIRPORT  N/A         81  35  19  NE2     N/A
#WASCO 5NE      N/A         82  44  26  CALM    30.07S
$$

ORZ511-290410-
CENTRAL OREGON

CITY            SKY/WX      TMP DP  RH  WIND    PRES   REMARKS
BEND AIRPORT    CLEAR       75  32  21  N8      30.20R
MADRAS AIRPORT  CLEAR       79  32  18  N8      30.17S
PRINEVILLE AP   CLEAR       75  34  22  NW9     30.17R
REDMOND AIRPORT CLEAR       77  32  19  N9      30.17S
#BEND 1SW       N/A         71  36  28  NE2     N/A
#BEND-AWBREY    N/A         75  36  24  N3      30.09S
#BEND-KIM LN    N/A         74  38  27  CALM    30.18R
#CROOKED RVR RANN/A         77  38  24  E3      30.06S
#CULVER         N/A         76  40  27  N1      30.12S
#LAKE BILLY CHINN/A         79   2   5  E6      30.18R
#POWELL BUTTE   N/A         73  41  31  N2      29.81R
#PRINEVILLE 3N  N/A         71  44  38  N6      30.03R
#WARM SPRINGS   N/A         83  40  22  NW6     30.08R

$$


ORZ509-290410-
EAST SLOPES OF OREGON CASCADES

CITY            SKY/WX      TMP DP  RH  WIND    PRES   REMARKS
#CAMP SHERMAN   N/A         74  34  23  CALM    30.14R
#LA PINE 4NW    N/A         71  40  32  CALM    30.13S
#SISTERS AIRPOR N/A         77  43  30  N2      30.17S
#SISTERS 1NW    N/A         78  N/A N/A N5      N/A
#SISTERS 3N     N/A         70  34  26  CALM    30.31R
#SUNRIVER       N/A         71  37  29  CALM    29.99S
#TUMALO 3W      N/A         75  32  21  N3      29.98S
#WANOGA BUTTE D N/A         64  28  25  NE8     N/A

$$

ORZ044-290410-
LOWER COLUMBIA BASIN...OREGON

CITY            SKY/WX      TMP DP  RH  WIND    PRES   REMARKS
HERMISTON       CLEAR       81  37  21  CALM    30.09S
#BOARDMAN SCHOOLN/A         83  40  22  CALM    30.09R
#BOARDMAN 8SW   N/A         80  47  31  N3      30.07S
#ECHO 8SW       N/A         81  42  25  CALM    30.10S
#IONE SCHOOL    N/A         83  41  23  CALM    30.07S
#IRRIGON 4NW    N/A         87  41  20  S1      N/A
#UMATILLA       N/A         84  43  24  CALM    30.00R
$$

ORZ507-290410-
NORTHERN FOOTHILLS OF THE BLUES

CITY            SKY/WX      TMP DP  RH  WIND    PRES   REMARKS
PENDLETON AIRPT CLEAR       76  35  22  NW7     30.13R
#ADAMS 3WNW     N/A         75  38  26  N1      30.08R
#ATHENA         N/A         77  39  25  CALM    30.10S
#CAYUSE         N/A         79  41  26  N5      30.06S
#HELIX SCHOOL   N/A         76  40  27  N2      30.08S
#HELIX 3N       N/A         76  38  25  N5      30.11S
#HOLDMAN 5SE    N/A         80  39  23  CALM    30.12S
#HOLDMAN 6E     N/A         79  41  26  CALM    29.90S
#M-F GROVE ELEM N/A         80  39  23  CALM    30.10R
#M-FREEWATER 5SEN/A         79  47  32  W1      30.11S
#PENDLETON DNTN N/A         80  39  23  CALM    30.08S
#PDT AQUATIC CTRN/A         80  38  22  NW3     30.09S
#PDT SUNRIDGE   N/A         79  39  24  NW1     30.12S
#PENDLETON 7NW  N/A         80  48  33  CALM    N/A
#PILOT ROCK     N/A         74  39  28  CALM    30.16R
#TUTUILLA       N/A         76  40  27  CALM    30.09S
#UMAPINE 2E     N/A         76  49  39  CALM    30.06S
#WESTON SCHOOL  N/A         75  34  22  E1      30.01S

$$

ORZ508-290410-
SOUTHERN FOOTHILLS OF THE BLUES

CITY            SKY/WX      TMP DP  RH  WIND    PRES   REMARKS
#AJAX           N/A         78  35  21  N1      30.08S
#CONDON SCHOOL  N/A         75  41  29  N3      30.14R
#CONDON 5W      N/A         72  36  27  N3      30.19R
#FOSSIL SCHOOL  N/A         77  39  25  N10     30.11R
#HEPPNER EOC    N/A         80  42  26  CALM    30.03R
#HEPPNER 4NE    N/A         74  40  29  VRB1    30.10S
#LEXINGTON 2SE  N/A         82  41  23  CALM    30.10S
#OLEX 4N        N/A         81  39  22  NE3     30.09R
#RUGGS 5NE      N/A         75  39  27  N6      30.43R
#RUGGS 2SW      N/A         74  41  30  CALM    30.11R

$$

ORZ502-503-290410-
BLUE MOUNTAINS

CITY            SKY/WX      TMP DP  RH  WIND    PRES   REMARKS
MEACHAM         CLEAR       66  37  34  CALM    30.24R
#LONG CREEK HS  N/A         74  39  28  CALM    30.16S
#PIKES PEAK     N/A         69  38  32  W1      27.99S
#TOLLGATE       N/A         59  39  47  CALM    30.12R
#TROY SCHOOL    N/A         80  41  25  N3      29.91R
#UKIAH          N/A         71  40  32  W5      30.16R
#WESTON 4E      N/A         69  39  33  CALM    30.06R
$$

ORZ505-290410-
JOHN DAY BASIN

CITY            SKY/WX      TMP DP  RH  WIND    PRES   REMARKS
JOHN DAY        CLEAR       73  31  21  N3      30.20R
#JOHN DAY KJDY  N/A         79  30  17  W1      30.21R
#DAYVILLE SCHOOLN/A         79  30  17  CALM    30.10R
#MITCHELL       N/A         77  43  30  CALM    30.31R
#MONUMENT HS    N/A         79  37  22  VRB6    30.11R
#MT. VERNON 5SE N/A         72  32  23  CALM    30.16S
#WINLOCK        N/A         70  40  34  CALM    30.24R
$$

ORZ506-290410-
OCHOCO AND JOHN DAY HIGHLANDS

CITY            SKY/WX      TMP DP  RH  WIND    PRES   REMARKS
#HORSE RIDGE DO N/A         75  31  20  N8      N/A
#KEYES SMT DOT  N/A         73  30  20  NW5     N/A
#PAULINA SCHOOL N/A         74  33  22  VRB1    30.14R
#PINE MTN OBS   N/A         65  34  31  NW7     N/A
#PRAIRIE CITY   N/A         70  35  28  CALM    30.05R
#SENECA         N/A         72  N/A N/A CALM    N/A
#SENECA 9NW     N/A         66  33  29  CALM    30.12S
$$

ORZ049-290410-
GRANDE RONDE VALLEY

CITY            SKY/WX      TMP DP  RH  WIND    PRES   REMARKS
LA GRANDE       CLEAR       73  36  26  NW3     30.17R
#COVE           N/A         70  49  47  CALM    30.18R
#COVE SCHOOL    N/A         70  45  41  CALM    30.18S
#COVE 6NW       N/A         77  39  25  CALM    30.13S
#ELGIN 3N       N/A         71  34  26  NW2     30.14R
#ELGIN 1E       N/A         79  43  28  CALM    N/A
#ISLAND CITY 4N N/A         83  52  34  CALM    30.11S
#LA GRANDE ELEM N/A         69  39  33  CALM    30.17S
#UNION 1S       N/A         72  39  30  CALM    30.00R
$$

ORZ050-290410-
WALLOWA COUNTY

CITY            SKY/WX      TMP DP  RH  WIND    PRES   REMARKS
JOSEPH AIRPORT  CLEAR       64  34  33  CALM    30.25S
#IMNAHA SCHOOL  N/A         77  33  20  CALM    30.10R
#IMNAHA 10S     N/A         70  38  31  CALM    30.14S
#JOSEPH 3N      N/A         66  36  33  SW2     30.23R
#JOSEPH 3W      N/A         59  36  42  SW1     30.09R
#LOSTINE        N/A         68  39  35  CALM    29.92S
#MT HOWARD 8000 N/A         53  31  43  CALM    30.45S
#PROMISE 1S     N/A         71  40  32  SW1     30.18S
#WALLOWA SCHOOL N/A         75  39  27  CALM    30.13S



$$



USA.gov is the U.S. government's official web portal to all federal, state and local government web resources and services.